Flag for U.S.A. Weather past 2 weeks in Louisville, Kentucky, U.S.A.

Now
72 °F

Mostly cloudy.


Feels Like: 76 °F
Forecast: 49 / 69 °F
Wind: 3 mph from North

Location: Standiford Field


UV Index: 0 (Low)

Visibility: 10 mi


Pressure: 30.23 "Hg

Humidity: 28%

Dew point: 37 °F

Location of LouisvilleLocation

Historic Weather in Louisville

°F

Louisville temperature yesterday

Maximum temperature yesterday: 69 °F (at 4:56 PM)
Minimum temperature yesterday: 40 °F (at 5:56 AM)
Average temperature yesterday: 56 °F

Past Weeks' High & Low Weather Summary

 TemperatureHumidityPressure
High83 °F (Apr 13, 2:56 PM)97% (Apr 3, 5:56 PM)30.40 "Hg (Apr 3, 5:56 PM)
Low32 °F (Apr 16, 5:56 AM)26% (Apr 17, 5:56 PM)29.39 "Hg (Apr 7, 4:58 PM)
Average57 °F59%29.98 "Hg
* Reported Apr 3 3:56 PM — Apr 18 3:56 PM, Louisville, Weather by CustomWeather, © 2014

Note: Actual official high and low records may vary slightly from our data, if they occured in-between our weather recording intervals... More about our weather records

Advertising

Historic Weather Conditions — Data for Previous 24 hours

 ConditionsComfort  
Time TempWeatherWind HumidityBarometerVisibility
3:56 PM
Apr 18
72 °FMostly cloudy.3 mph28%30.23 "Hg10 mi
2:56 PM73 °FOvercast.3 mph29%30.25 "Hg10 mi
1:56 PM72 °FPartly sunny.5 mph29%30.26 "Hg10 mi
12:56 PM69 °FPartly sunny.3 mph32%30.28 "Hg10 mi
11:56 AM68 °FPartly sunny.3 mph40%30.29 "Hg10 mi
10:56 AM61 °FPartly sunny.3 mph44%30.30 "Hg10 mi
9:56 AM53 °FPartly sunny.No wind61%30.30 "Hg10 mi
8:56 AM51 °FPartly sunny.No wind69%30.30 "Hg10 mi
7:56 AM48 °FPartly cloudy.7 mph74%30.29 "Hg10 mi
6:56 AM49 °FMostly cloudy.No wind69%30.27 "Hg10 mi
5:56 AM48 °FMostly cloudy.3 mph68%30.27 "Hg10 mi
4:56 AM51 °FMostly cloudy.3 mph61%30.27 "Hg10 mi
3:56 AM50 °FMostly cloudy.5 mph68%30.26 "Hg10 mi
2:56 AM52 °FMostly cloudy.No wind61%30.24 "Hg10 mi
1:56 AM54 °FHigh level clouds.No wind53%30.25 "Hg10 mi
12:56 AM53 °FPassing clouds.No wind59%30.26 "Hg10 mi
11:56 PM
Apr 17
56 °FPassing clouds.No wind51%30.26 "Hg10 mi
10:56 PM59 °FClear.No wind44%30.27 "Hg10 mi
9:56 PM62 °FPassing clouds.No wind31%30.26 "Hg10 mi
8:56 PM63 °FPassing clouds.3 mph30%30.26 "Hg10 mi
7:56 PM65 °FScattered clouds.6 mph31%30.25 "Hg10 mi
6:56 PM68 °FPartly sunny.8 mph26%30.25 "Hg10 mi
5:56 PM68 °FPartly sunny.5 mph26%30.25 "Hg10 mi
Weather by CustomWeather, © 2014

See weather overview